Charter Quote
Worldwide +1-877-727-2538 Call
Select Language Lang
SAFETY RELIABILITY EXPERIENCE

Private Jet Charter Services - Wai Sha Airport (ZGOW)

Paramount Business Jets offers private jet charter flights and luxury airliner charters to and from Wai Sha Airport.

AIRPORT INFORMATION
ICAOZGOW
IATASWA
LOCATIONShantou, China
FACILITY TYPEAIRPORT

At Paramount Business Jets you can hire chartered private jets to and from Wai Sha Airport with as little as 4 hours of notice. All flights booked via Paramount Business Jets are operated by certified direct air carriers that meet and exceed the FAA part 135 and 121 protocol or a foreign equivalent safety authority. Furthermore, Paramount Business Jets subscribes to ARGUS for their third party safety checks of operators, aircraft, and crews prior each and every flight to and from Wai Sha Airport and worldwide.

  • Quote a trip using Wai Sha Airport or call us 24/7 - 365 days a year at +1-877-727-2538.
Questions? Call +1-877-727-2538

METAR Weather Data at Wai Sha Airport, ZGOW, SWA

STATIONZGOW
OBSERVEDMon Oct 21, 19:00 UTC
NOWMon Oct 21, 19:58 UTC
AGE58 min ago
WINDvaries at 2 mph
VISIBILITYgreater than 7 miles
CLOUDSclear skies
TEMP68°F (20°C)
DEWPT63°F (17°C)
HUMIDITY83%
BAROMETER1013 hPa (29.91 in Hg)
METARZGOW 211900Z VRB01MPS CAVOK 20/17 Q1013 NOSIG

Call us on +1-877-727-2538 (24 Hours) to Hire a Private Jet or Get a Quick Quote.

Find Airports Near any Location

Processing
...